Météo par heure à Almazar

Ce jour, 15 Mai, Samedi

Heure Température Précipitation Vent Pression Humidité
00:00 +20°C° 0 mm 4 m/s 731 mmHg 42%
01:00 +19°C° 0 mm 4 m/s 731 mmHg 44%
02:00 +19°C° 0 mm 5 m/s 731 mmHg 46%
03:00 +18°C° 0 mm 4 m/s 731 mmHg 46%
04:00 +18°C° 0 mm 4 m/s 731 mmHg 47%
05:00 +17°C° 0 mm 4 m/s 731 mmHg 47%
06:00 +19°C° 0 mm 3 m/s 732 mmHg 43%
07:00 +20°C° 0 mm 3 m/s 732 mmHg 39%
08:00 +21°C° 0 mm 3 m/s 733 mmHg 35%
09:00 +24°C° 0 mm 3 m/s 732 mmHg 32%
10:00 +25°C° 0 mm 3 m/s 732 mmHg 29%
11:00 +27°C° 0 mm 3 m/s 732 mmHg 25%
12:00 +28°C° 0 mm 3 m/s 732 mmHg 23%
13:00 +29°C° 0 mm 3 m/s 732 mmHg 21%
14:00 +30°C° 0 mm 3 m/s 731 mmHg 19%
15:00 +31°C° 0 mm 3 m/s 731 mmHg 19%
16:00 +31°C° 0 mm 2 m/s 731 mmHg 18%
17:00 +31°C° 0 mm 2 m/s 731 mmHg 17%
18:00 +29°C° 0 mm 2 m/s 731 mmHg 20%
19:00 +27°C° 0 mm 2 m/s 731 mmHg 24%
20:00 +26°C° 0 mm 2 m/s 731 mmHg 27%
21:00 +25°C° 0 mm 2 m/s 731 mmHg 28%
22:00 +24°C° 0 mm 2 m/s 730 mmHg 30%
23:00 +23°C° 0 mm 1 m/s 730 mmHg 32%

Demain, 16 Mai, Dimanche

Heure Température Précipitation Vent Pression Humidité
00:00 +21°C° 0 mm 2 m/s 730 mmHg 35%
01:00 +21°C° 0 mm 3 m/s 730 mmHg 37%
02:00 +20°C° 0 mm 3 m/s 730 mmHg 40%
03:00 +19°C° 0 mm 3 m/s 731 mmHg 42%
04:00 +18°C° 0 mm 3 m/s 731 mmHg 45%
05:00 +18°C° 0 mm 2 m/s 731 mmHg 47%
06:00 +19°C° 0 mm 2 m/s 731 mmHg 43%
07:00 +20°C° 0 mm 2 m/s 732 mmHg 38%
08:00 +23°C° 0 mm 2 m/s 732 mmHg 33%
09:00 +24°C° 0 mm 2 m/s 732 mmHg 30%
10:00 +26°C° 0 mm 2 m/s 732 mmHg 28%
11:00 +28°C° 0 mm 2 m/s 732 mmHg 25%
12:00 +29°C° 0 mm 2 m/s 732 mmHg 23%
13:00 +31°C° 0 mm 2 m/s 732 mmHg 21%
14:00 +32°C° 0 mm 2 m/s 732 mmHg 20%
15:00 +32°C° 0 mm 2 m/s 731 mmHg 19%
16:00 +34°C° 0 mm 2 m/s 731 mmHg 18%
17:00 +33°C° 0 mm 1 m/s 731 mmHg 17%
18:00 +31°C° 0 mm 1 m/s 731 mmHg 20%
19:00 +29°C° 0 mm 1 m/s 731 mmHg 23%
20:00 +27°C° 0 mm 1 m/s 731 mmHg 25%
21:00 +27°C° 0 mm 1 m/s 731 mmHg 26%
22:00 +26°C° 0 mm 1 m/s 731 mmHg 27%
23:00 +25°C° 0 mm 1 m/s 731 mmHg 29%

Après-demain, 17 Mai, Lundi

Heure Température Précipitation Vent Pression Humidité
00:00 +24°C° 0 mm 1 m/s 731 mmHg 30%
01:00 +24°C° 0 mm 1 m/s 731 mmHg 31%
02:00 +23°C° 0 mm 1 m/s 731 mmHg 32%
03:00 +23°C° 0 mm 1 m/s 731 mmHg 34%
04:00 +22°C° 0 mm 1 m/s 731 mmHg 36%
05:00 +21°C° 0 mm 1 m/s 731 mmHg 38%
06:00 +23°C° 0 mm 1 m/s 732 mmHg 35%
07:00 +25°C° 0 mm 1 m/s 732 mmHg 32%
08:00 +27°C° 0 mm 1 m/s 733 mmHg 30%
09:00 +29°C° 0 mm 1 m/s 733 mmHg 26%
10:00 +31°C° 0 mm 2 m/s 732 mmHg 23%
11:00 +34°C° 0 mm 2 m/s 732 mmHg 20%
12:00 +35°C° 0 mm 2 m/s 732 mmHg 17%
13:00 +36°C° 0 mm 3 m/s 732 mmHg 14%
14:00 +37°C° 0 mm 3 m/s 731 mmHg 12%
15:00 +37°C° 0 mm 3 m/s 731 mmHg 12%
16:00 +37°C° 0 mm 4 m/s 731 mmHg 12%
17:00 +37°C° 0 mm 4 m/s 730 mmHg 12%
18:00 +34°C° 0 mm 5 m/s 731 mmHg 17%
19:00 +32°C° 0 mm 5 m/s 731 mmHg 21%
20:00 +29°C° 0 mm 6 m/s 731 mmHg 26%
21:00 +28°C° 0 mm 5 m/s 731 mmHg 27%
22:00 +27°C° 0 mm 4 m/s 731 mmHg 28%
23:00 +26°C° 0 mm 3 m/s 730 mmHg 29%

18 Mai, Mardi

Heure Température Précipitation Vent Pression Humidité
00:00 +26°C° 0 mm 2 m/s 730 mmHg 30%
01:00 +25°C° 0 mm 2 m/s 730 mmHg 30%
02:00 +25°C° 0 mm 2 m/s 730 mmHg 31%
03:00 +25°C° 0 mm 2 m/s 730 mmHg 32%
04:00 +24°C° 0 mm 2 m/s 730 mmHg 32%
05:00 +24°C° 0 mm 3 m/s 730 mmHg 33%
06:00 +26°C° 0 mm 3 m/s 730 mmHg 31%
07:00 +28°C° 0 mm 3 m/s 730 mmHg 29%
08:00 +29°C° 0 mm 4 m/s 731 mmHg 26%
09:00 +32°C° 0 mm 4 m/s 730 mmHg 23%
10:00 +34°C° 0 mm 4 m/s 730 mmHg 19%
11:00 +36°C° 0 mm 4 m/s 730 mmHg 16%
12:00 +37°C° 0 mm 3 m/s 730 mmHg 14%
13:00 +37°C° 0 mm 3 m/s 730 mmHg 13%
14:00 +38°C° 0 mm 2 m/s 729 mmHg 11%
15:00 +38°C° 0 mm 2 m/s 729 mmHg 12%
16:00 +38°C° 0 mm 3 m/s 729 mmHg 12%
17:00 +38°C° 0 mm 3 m/s 729 mmHg 12%
18:00 +35°C° 0 mm 4 m/s 729 mmHg 17%
19:00 +32°C° 0 mm 5 m/s 729 mmHg 22%
20:00 +29°C° 0 mm 5 m/s 729 mmHg 27%
21:00 +28°C° 0 mm 4 m/s 729 mmHg 28%
22:00 +27°C° 0 mm 4 m/s 729 mmHg 29%
23:00 +27°C° 0 mm 3 m/s 729 mmHg 30%

19 Mai, Mercredi

Heure Température Précipitation Vent Pression Humidité
00:00 +26°C° 0 mm 3 m/s 729 mmHg 31%
01:00 +26°C° 0 mm 2 m/s 728 mmHg 31%
02:00 +25°C° 0 mm 2 m/s 728 mmHg 32%
03:00 +25°C° 0 mm 2 m/s 728 mmHg 32%
04:00 +24°C° 0 mm 1 m/s 728 mmHg 33%
05:00 +23°C° 0 mm 1 m/s 728 mmHg 33%
06:00 +26°C° 0 mm 1 m/s 729 mmHg 30%
07:00 +28°C° 0 mm 1 m/s 729 mmHg 26%
08:00 +30°C° 0 mm 2 m/s 729 mmHg 23%
09:00 +32°C° 0 mm 1 m/s 729 mmHg 20%
10:00 +34°C° 0 mm 1 m/s 729 mmHg 16%
11:00 +35°C° 0 mm 1 m/s 729 mmHg 13%
12:00 +37°C° 0 mm 2 m/s 729 mmHg 12%
13:00 +38°C° 0 mm 3 m/s 728 mmHg 10%
14:00 +40°C° 0 mm 4 m/s 728 mmHg 9%
15:00 +38°C° 0 mm 4 m/s 728 mmHg 10%
16:00 +38°C° 0 mm 4 m/s 728 mmHg 10%
17:00 +38°C° 0 mm 4 m/s 728 mmHg 10%
18:00 +35°C° 0 mm 3 m/s 728 mmHg 15%
19:00 +33°C° 0 mm 3 m/s 728 mmHg 20%
20:00 +29°C° 0 mm 3 m/s 728 mmHg 25%
21:00 +28°C° 0 mm 2 m/s 728 mmHg 25%
22:00 +28°C° 0 mm 2 m/s 728 mmHg 26%
23:00 +27°C° 0 mm 2 m/s 728 mmHg 26%

20 Mai, Jeudi

Heure Température Précipitation Vent Pression Humidité
00:00 +26°C° 0 mm 2 m/s 728 mmHg 27%
01:00 +26°C° 0 mm 1 m/s 728 mmHg 28%
02:00 +25°C° 0 mm 1 m/s 728 mmHg 29%
03:00 +25°C° 0 mm 1 m/s 728 mmHg 29%
04:00 +24°C° 0 mm 1 m/s 729 mmHg 29%
05:00 +24°C° 0 mm 1 m/s 729 mmHg 30%
06:00 +25°C° 0 mm 1 m/s 729 mmHg 28%
07:00 +27°C° 0 mm 1 m/s 730 mmHg 26%
08:00 +29°C° 0 mm 1 m/s 730 mmHg 24%
09:00 +31°C° 0 mm 2 m/s 730 mmHg 21%
10:00 +32°C° 0 mm 2 m/s 730 mmHg 19%
11:00 +35°C° 0 mm 3 m/s 730 mmHg 17%
12:00 +36°C° 0 mm 3 m/s 730 mmHg 15%
13:00 +37°C° 0 mm 3 m/s 729 mmHg 13%
14:00 +38°C° 0 mm 3 m/s 729 mmHg 11%
15:00 +39°C° 0 mm 5 m/s 729 mmHg 12%
16:00 +38°C° 0 mm 6 m/s 729 mmHg 13%
17:00 +38°C° 0 mm 7 m/s 728 mmHg 14%
18:00 +34°C° 0 mm 7 m/s 728 mmHg 20%
19:00 +32°C° 0 mm 6 m/s 729 mmHg 25%
20:00 +29°C° 0 mm 5 m/s 729 mmHg 31%
21:00 +28°C° 0 mm 4 m/s 729 mmHg 33%
22:00 +27°C° 0 mm 4 m/s 729 mmHg 36%
23:00 +26°C° 0 mm 3 m/s 729 mmHg 39%
Voir plus

Nous avons besoin de votre consentement

Meteoprog et ses fournisseurs de services peuvent stocker et accéder à des données personnelles telles que des cookies, des identifiants d'appareils ou d'autres technologies similaires sur votre appareil et traiter ces données pour personnaliser le contenu et les publicités, ainsi que pour fournir des fonctionnalités de médias sociaux et analyser le trafic.

  • Stocker et/ou accéder à des informations sur votre appareil

    Des cookies, des identifiants d'appareils ou d'autres informations peuvent être stockés ou accessibles sur votre appareil aux fins indiquées ci-dessus.

  • Annonces et contenus personnalisés, mesure des annonces et des contenus, connaissance de l'audience et développement de produits

    Les annonces et le contenu peuvent être personnalisés en fonction d'un profil. D'autres données peuvent être ajoutées pour mieux personnaliser les annonces et le contenu. Les performances des publicités et du contenu peuvent être mesurées. Il est possible d'obtenir des informations sur le public qui a vu les publicités et le contenu. Ces données peuvent être utilisées pour développer ou améliorer l'expérience de l'utilisateur, les systèmes et les logiciels.

En cliquant sur "J'accepte", vous autorisez l'utilisation de cookies, des identifiants d'appareils, des balises web ou d'autres technologies similaires. Vos paramètres peuvent être modifiés dans le navigateur de votre appareil.

Dans certains cas, des intérêts légitimes peuvent être invoqués plutôt qu'un consentement. Vous pouvez en savoir plus à ce sujet dans notre Politique de confidentialité et de cookies.